Doha, Qatar

7:50 PM +03 on January 22, 2018 (GMT +0300)
Doha International

Weather History for OTBD - January, 2014

Change the Weather History Date:

Sunday, January 26, 2014

  Actual Average Record
Temperature  
Mean Temperature 65 °F -  
Max Temperature 70 °F 73 °F 78 °F (2013)
Min Temperature 60 °F 57 °F 48 °F (1999)
Growing Degree Days 15 (Base 50)    
Moisture  
Dew Point 58 °F    
Average Humidity 78    
Maximum Humidity 88    
Minimum Humidity 56    
Precipitation  
Precipitation 0.00 in 0.02 in - ()
Sea Level Pressure  
Sea Level Pressure 30.12 in    
Wind  
Wind Speed 4 mph ()    
Max Wind Speed 12 mph    
Max Gust Speed -    
Visibility 2.7 miles    
Events      
Averages and records for this station are not official NWS values.
T = Trace of Precipitation, MM = Missing Value Source: Averaged Metar Reports

Daily Weather History Graph

Daily Weather History Graph

Search for Another Location

Airport or City:

Trip Planner

Search our weather history database for the weather conditions in past years. The results will help you decide how hot, cold, wet, or windy it might be!

Date:

Astronomy

Jan. 26, 2014 Rise Set
Actual Time 6:19 AM +03 5:13 PM +03
Civil Twilight 5:54 AM +03 5:37 PM +03
Nautical Twilight 5:27 AM +03 6:05 PM +03
Astronomical Twilight 4:59 AM +03 6:32 PM +03
Moon 1:30 AM +03 (1/26) 12:44 PM +03 (1/26)
Length of Visible Light 11h 42m
Length of Day
10h 54m
Waning Crescent, 27% of the Moon is Illuminated
Jan 26
Waning Crescent
Jan 31
New
Feb 6
First Quarter
Feb 15
Full
Feb 22
Last Quarter

Hourly Weather History & Observations

Time (+03) Temp. Dew Point Humidity Pressure Visibility Wind Dir Wind Speed Gust Speed Precip Events Conditions
12:00 AM 64 °F 57 °F 71% 30.13 in 2 mi 3.5 mph - -   Haze
12:00 AM 64.4 °F 57.2 °F 77% 30.12 in 2.5 mi Variable 3.5 mph - N/A   Haze
12:30 AM 62.6 °F 57.2 °F 82% 30.12 in 2.5 mi NW 3.5 mph - N/A   Haze
1:00 AM 62.6 °F 57.2 °F 82% 30.12 in 2.5 mi WNW 4.6 mph - N/A   Haze
1:30 AM 62.6 °F 57.2 °F 82% 30.09 in 2.5 mi NW 4.6 mph - N/A   Haze
2:00 AM 60.8 °F 57.2 °F 88% 30.09 in 2.5 mi NW 5.8 mph - N/A   Haze
2:30 AM 60.8 °F 57.2 °F 88% 30.09 in 2.5 mi NW 5.8 mph - N/A   Haze
3:00 AM 61 °F 57 °F 81% 30.11 in 2 mi NW 4.6 mph - -   Haze
3:00 AM 60.8 °F 57.2 °F 88% 30.09 in 2.5 mi NW 4.6 mph - N/A   Haze
3:30 AM 60.8 °F 57.2 °F 88% 30.09 in 2.5 mi NW 3.5 mph - N/A   Haze
4:00 AM 60.8 °F 57.2 °F 88% 30.09 in 2.2 mi NW 3.5 mph - N/A   Haze
5:00 AM 60.8 °F 57.2 °F 88% 30.09 in 2.2 mi WNW 4.6 mph - N/A   Haze
5:30 AM 60.8 °F 57.2 °F 88% 30.12 in 2.2 mi NW 5.8 mph - N/A   Haze
6:00 AM 60 °F 56 °F 83% 30.14 in 2 mi NW 3.5 mph - -   Haze
6:00 AM 60.8 °F 57.2 °F 88% 30.12 in 1.9 mi NW 3.5 mph - N/A   Haze
7:00 AM 60.8 °F 57.2 °F 88% 30.12 in 1.9 mi NNW 3.5 mph - N/A   Haze
7:30 AM 62.6 °F 57.2 °F 82% 30.15 in 1.9 mi NNW 5.8 mph - N/A   Haze
8:00 AM 64.4 °F 57.2 °F 77% 30.15 in 2.5 mi NNW 5.8 mph - N/A   Haze
8:30 AM 64.4 °F 57.2 °F 77% 30.18 in 2.5 mi NNW 9.2 mph - N/A   Haze
9:00 AM 66 °F 58 °F 70% 30.20 in 3 mi NNW 6.9 mph - -   Haze
9:00 AM 66.2 °F 59.0 °F 78% 30.18 in 2.8 mi NNW 6.9 mph - N/A   Haze
9:30 AM 66.2 °F 57.2 °F 73% 30.18 in 2.8 mi NNW 11.5 mph - N/A   Haze
10:00 AM 68.0 °F 57.2 °F 68% 30.18 in 2.8 mi North 5.8 mph - N/A   Haze
10:30 AM 68.0 °F 55.4 °F 64% 30.18 in 2.8 mi North 6.9 mph - N/A   Haze
11:00 AM 68.0 °F 59.0 °F 73% 30.15 in 3.1 mi North 5.8 mph - N/A   Haze
11:30 AM 68.0 °F 59.0 °F 73% 30.15 in 3.1 mi NNE 5.8 mph - N/A   Haze
12:00 PM 69 °F 58 °F 59% 30.14 in 3 mi NNE 5.8 mph - -   Haze
12:00 PM 69.8 °F 57.2 °F 64% 30.12 in 3.1 mi NNE 5.8 mph - N/A   Partly Cloudy
12:30 PM 69.8 °F 57.2 °F 64% 30.09 in 3.1 mi NNE 5.8 mph - N/A   Haze
1:00 PM 69.8 °F 57.2 °F 64% 30.09 in 3.1 mi NE 6.9 mph - N/A   Haze
1:30 PM 69.8 °F 57.2 °F 64% 30.09 in 3.7 mi Variable 5.8 mph - N/A   Unknown
2:00 PM 69.8 °F 57.2 °F 64% 30.06 in 3.7 mi NE 5.8 mph - N/A   Unknown
3:00 PM 69 °F 57 °F 56% 30.09 in 4 mi NE 4.6 mph - -   Haze
3:00 PM 69.8 °F 57.2 °F 64% 30.06 in 3.7 mi NE 4.6 mph - N/A   Unknown
3:30 PM 68.0 °F 57.2 °F 68% 30.06 in 3.7 mi East 5.8 mph - N/A   Unknown
4:00 PM 68.0 °F 59.0 °F 73% 30.06 in 3.7 mi East 6.9 mph - N/A   Unknown
5:00 PM 66.2 °F 59.0 °F 78% 30.06 in 2.8 mi East 6.9 mph - N/A   Haze
5:30 PM 66.2 °F 59.0 °F 78% 30.09 in 2.5 mi ENE 4.6 mph - N/A   Haze
6:00 PM 66 °F 60 °F 77% 30.12 in 2 mi ENE 4.6 mph - -   Haze
6:00 PM 66.2 °F 60.8 °F 83% 30.09 in 2.5 mi ENE 4.6 mph - N/A   Haze
6:30 PM 64.4 °F 60.8 °F 88% 30.09 in 2.5 mi ENE 3.5 mph - N/A   Haze
7:00 PM 64.4 °F 59.0 °F 83% 30.09 in 3.1 mi ENE 3.5 mph - N/A   Haze
7:30 PM 64.4 °F 60.8 °F 88% 30.12 in 3.1 mi Variable 2.3 mph - N/A   Haze
8:00 PM 64.4 °F 60.8 °F 88% 30.12 in 3.1 mi Variable 2.3 mph - N/A   Haze
8:30 PM 64.4 °F 60.8 °F 88% 30.12 in 2.8 mi North 3.5 mph - N/A   Haze
9:00 PM 64 °F 60 °F 83% 30.13 in 3 mi 2.3 mph - -   Haze
9:00 PM 64.4 °F 60.8 °F 88% 30.12 in - North - - N/A   Haze
9:30 PM 64.4 °F 60.8 °F 88% 30.12 in 2.5 mi ENE 4.6 mph - N/A   Haze
10:00 PM 64.4 °F 60.8 °F 88% 30.12 in 2.5 mi Variable 2.3 mph - N/A   Mist
10:30 PM 64.4 °F 60.8 °F 88% 30.12 in 2.5 mi NNE 3.5 mph - N/A   Mist
11:00 PM 64.4 °F 60.8 °F 88% 30.12 in 2.5 mi NNE 3.5 mph - N/A   Mist